This demonstration page uses our WeatherBlox Daily Observations layout. Learn more.

Left ArrowRight Arrow

53.62937, 11.41316

Hourly Observations for November 21, 2019

Temp ( °F °C ) Dew Point ( °F °C ) Humidity (%) Winds ( mph kmh ) Pressure ( in mb ) Visibility ( mi km ) Precip ( " mm )
6:50 am 06:50 Mostly Cloudy 37 3 36 2 93 93 NNE 2 4 29.95 1014 4 6 N/A
7:20 am 07:20 Mostly Cloudy with Mist and Fog 37 3 37 3 100 100 VRB 2 4 29.95 1014 3 5 N/A
7:50 am 07:50 Mostly Cloudy with Mist and Fog 37 3 37 3 100 100 N 3 6 29.95 1014 2 3 N/A
8:20 am 08:20 Mostly Cloudy with Mist and Fog 37 3 37 3 100 100 NE 3 6 29.95 1014 2 3 N/A
8:50 am 08:50 Mostly Cloudy with Drizzle 39 4 37 3 93 93 NE 3 6 29.95 1014 1 2 N/A
9:20 am 09:20 Mostly Cloudy with Mist and Fog 39 4 39 4 100 100 NE 3 6 29.95 1014 2 3 N/A
9:50 am 09:50 Mostly Cloudy with Mist and Fog 41 5 39 4 93 93 NE 3 6 29.95 1014 1 2 N/A
10:20 am 10:20 Mostly Cloudy with Mist and Fog 41 5 41 5 100 100 ENE 5 7 29.95 1014 2 3 N/A
10:50 am 10:50 Mostly Cloudy with Drizzle 41 5 41 5 100 100 NE 6 9 29.92 1013 2 3 N/A
11:20 am 11:20 Mostly Cloudy with Mist and Fog 41 5 41 5 100 100 ENE 7 11 29.92 1013 2 3 N/A
11:50 am 11:50 Mostly Cloudy with Mist and Fog 43 6 41 5 93 93 ENE 7 11 29.89 1012 2 3 N/A
12:20 pm 12:20 Mostly Cloudy with Fog 43 6 43 6 100 100 ENE 7 11 29.89 1012 1 1 N/A
12:50 pm 12:50 Cloudy with Mist and Fog 43 6 43 6 100 100 ENE 8 13 29.89 1012 1 2 N/A
1:20 pm 13:20 Cloudy with Mist and Fog 43 6 43 6 100 100 ENE 7 11 29.86 1011 1 2 N/A
1:50 pm 13:50 Cloudy with Mist and Fog 45 7 43 6 93 93 E 6 9 29.86 1011 2 3 N/A
2:20 pm 14:20 Cloudy with Mist and Fog 45 7 43 6 93 93 E 3 6 29.86 1011 2 4 N/A
2:50 pm 14:50 Cloudy with Drizzle 45 7 45 7 100 100 E 3 6 29.86 1011 2 4 N/A
3:20 pm 15:20 Cloudy with Mist and Fog 45 7 45 7 100 100 E 5 7 29.83 1010 2 4 N/A
3:50 pm 15:50 Cloudy with Mist and Fog 45 7 45 7 100 100 E 7 11 29.83 1010 2 4 N/A
4:20 pm 16:20 Cloudy with Mist and Fog 45 7 45 7 100 100 E 7 11 29.83 1010 2 3 N/A
4:50 pm 16:50 Cloudy with Mist and Fog 45 7 45 7 100 100 E 6 9 29.83 1010 2 3 N/A
5:20 pm 17:20 Cloudy with Light Rain 46 8 45 7 93 93 E 7 11 29.83 1010 2 3 N/A
5:50 pm 17:50 Cloudy with Mist and Fog 46 8 45 7 93 93 E 7 11 29.83 1010 2 3 N/A
6:20 pm 18:20 Cloudy with Mist and Fog 46 8 45 7 93 93 E 6 9 29.80 1009 2 3 N/A
6:50 pm 18:50 Cloudy with Mist and Fog 46 8 45 7 93 93 E 6 9 29.80 1009 1 2 N/A
7:20 pm 19:20 Cloudy with Mist and Fog 46 8 46 8 100 100 ENE 6 9 29.80 1009 1 2 N/A
7:50 pm 19:50 Cloudy with Mist and Fog 46 8 46 8 100 100 E 5 7 29.80 1009 1 2 N/A

Powered by AerisWeather